Year,Month,Day,Hour,Minute,Value (Times are PST for temperature in C)
2023,05,25,00,00,13.40
2023,05,25,00,01,13.30
2023,05,25,00,02,13.30
2023,05,25,00,03,13.30
2023,05,25,00,04,13.30
2023,05,25,00,05,13.30
2023,05,25,00,06,13.30
2023,05,25,00,07,13.30
2023,05,25,00,08,13.30
2023,05,25,00,09,13.30
2023,05,25,00,10,13.20
2023,05,25,00,11,13.20
2023,05,25,00,12,13.20
2023,05,25,00,13,13.20
2023,05,25,00,14,13.20
2023,05,25,00,15,13.20
2023,05,25,00,16,13.20
2023,05,25,00,17,13.20
2023,05,25,00,18,13.20
2023,05,25,00,19,13.20
2023,05,25,00,20,13.10
2023,05,25,00,21,13.10
2023,05,25,00,22,13.10
2023,05,25,00,23,13.10
2023,05,25,00,24,13.10
2023,05,25,00,25,13.10
2023,05,25,00,26,13.10
2023,05,25,00,27,13.10
2023,05,25,00,28,13.10
2023,05,25,00,29,13.00
2023,05,25,00,30,13.00
2023,05,25,00,31,13.00
2023,05,25,00,32,13.00
2023,05,25,00,33,13.00
2023,05,25,00,34,12.90
2023,05,25,00,35,12.90
2023,05,25,00,36,12.90
2023,05,25,00,37,12.90
2023,05,25,00,38,12.80
2023,05,25,00,39,12.80
2023,05,25,00,40,12.80
2023,05,25,00,41,12.80
2023,05,25,00,42,12.80
2023,05,25,00,43,12.80
2023,05,25,00,44,12.80
2023,05,25,00,45,12.80
2023,05,25,00,46,12.80
2023,05,25,00,47,12.70
2023,05,25,00,48,12.70
2023,05,25,00,49,12.70
2023,05,25,00,50,12.70
2023,05,25,00,51,12.70
2023,05,25,00,52,12.70
2023,05,25,00,53,12.70
2023,05,25,00,54,12.60
2023,05,25,00,55,12.60
2023,05,25,00,56,12.60
2023,05,25,00,57,12.60
2023,05,25,00,58,12.60
2023,05,25,00,59,12.50
2023,05,25,01,00,12.50
2023,05,25,01,01,12.50
2023,05,25,01,02,12.50
2023,05,25,01,03,12.50
2023,05,25,01,04,12.50
2023,05,25,01,05,12.40
2023,05,25,01,06,12.40
2023,05,25,01,07,12.40
2023,05,25,01,08,12.40
2023,05,25,01,09,12.40
2023,05,25,01,10,12.40
2023,05,25,01,11,12.40
2023,05,25,01,12,12.40
2023,05,25,01,13,12.40
2023,05,25,01,14,12.40
2023,05,25,01,15,12.40
2023,05,25,01,16,12.40
2023,05,25,01,17,12.40
2023,05,25,01,18,12.40
2023,05,25,01,19,12.40
2023,05,25,01,20,12.30
2023,05,25,01,21,12.30
2023,05,25,01,22,12.30
2023,05,25,01,23,12.30
2023,05,25,01,24,12.30
2023,05,25,01,25,12.30
2023,05,25,01,26,12.30
2023,05,25,01,27,12.30
2023,05,25,01,28,12.20
2023,05,25,01,29,12.20
2023,05,25,01,30,12.20
2023,05,25,01,31,12.20
2023,05,25,01,32,12.20
2023,05,25,01,33,12.10
2023,05,25,01,34,12.10
2023,05,25,01,35,12.10
2023,05,25,01,36,12.10
2023,05,25,01,37,12.10
2023,05,25,01,38,12.10
2023,05,25,01,39,12.10
2023,05,25,01,40,12.10
2023,05,25,01,41,12.10
2023,05,25,01,42,12.10
2023,05,25,01,43,12.00
2023,05,25,01,44,12.00
2023,05,25,01,45,12.00
2023,05,25,01,46,12.00
2023,05,25,01,47,12.00
2023,05,25,01,48,12.00
2023,05,25,01,49,12.00
2023,05,25,01,50,12.00
2023,05,25,01,51,12.00
2023,05,25,01,52,12.00
2023,05,25,01,53,12.00
2023,05,25,01,54,12.00
2023,05,25,01,55,12.00
2023,05,25,01,56,12.00
2023,05,25,01,57,12.00
2023,05,25,01,58,12.00
2023,05,25,01,59,12.00
2023,05,25,02,00,12.00
2023,05,25,02,01,12.00
2023,05,25,02,02,12.00
2023,05,25,02,03,11.90
2023,05,25,02,04,11.90
2023,05,25,02,05,11.90
2023,05,25,02,06,11.90
2023,05,25,02,07,11.90
2023,05,25,02,08,11.90
2023,05,25,02,09,11.90
2023,05,25,02,10,11.90
2023,05,25,02,11,11.90
2023,05,25,02,12,11.90
2023,05,25,02,13,11.90
2023,05,25,02,14,11.90
2023,05,25,02,15,11.90
2023,05,25,02,16,11.90
2023,05,25,02,17,11.80
2023,05,25,02,18,11.80
2023,05,25,02,19,11.80
2023,05,25,02,20,11.80
2023,05,25,02,21,11.80
2023,05,25,02,22,11.80
2023,05,25,02,23,11.80
2023,05,25,02,24,11.80
2023,05,25,02,25,11.80
2023,05,25,02,26,11.80
2023,05,25,02,27,11.80
2023,05,25,02,28,11.80
2023,05,25,02,29,11.80
2023,05,25,02,30,11.70
2023,05,25,02,31,11.70
2023,05,25,02,32,11.70
2023,05,25,02,33,11.70
2023,05,25,02,34,11.60
2023,05,25,02,35,11.60
2023,05,25,02,36,11.60
2023,05,25,02,37,11.60
2023,05,25,02,38,11.60
2023,05,25,02,39,11.60
2023,05,25,02,40,11.60
2023,05,25,02,41,11.60
2023,05,25,02,42,11.60
2023,05,25,02,43,11.50
2023,05,25,02,44,11.40
2023,05,25,02,45,11.40
2023,05,25,02,46,11.40
2023,05,25,02,47,11.40
2023,05,25,02,48,11.40
2023,05,25,02,49,11.40
2023,05,25,02,50,11.40
2023,05,25,02,51,11.40
2023,05,25,02,52,11.40
2023,05,25,02,53,11.40
2023,05,25,02,54,11.40
2023,05,25,02,55,11.40
2023,05,25,02,56,11.40
2023,05,25,02,57,11.40
2023,05,25,02,58,11.30
2023,05,25,02,59,11.30
2023,05,25,03,00,11.30
2023,05,25,03,01,11.30
2023,05,25,03,02,11.30
2023,05,25,03,03,11.30
2023,05,25,03,04,11.30
2023,05,25,03,05,11.20
2023,05,25,03,06,11.20
2023,05,25,03,07,11.20
2023,05,25,03,08,11.20
2023,05,25,03,09,11.20
2023,05,25,03,10,11.20
2023,05,25,03,11,11.20
2023,05,25,03,12,11.10
2023,05,25,03,13,11.10
2023,05,25,03,14,11.10
2023,05,25,03,15,11.10
2023,05,25,03,16,11.10
2023,05,25,03,17,11.10
2023,05,25,03,18,11.10
2023,05,25,03,19,11.10
2023,05,25,03,20,11.10
2023,05,25,03,21,11.10
2023,05,25,03,22,11.10
2023,05,25,03,23,11.10
2023,05,25,03,24,11.00
2023,05,25,03,25,10.90
2023,05,25,03,26,10.90
2023,05,25,03,27,10.90
2023,05,25,03,28,10.90
2023,05,25,03,29,10.90
2023,05,25,03,30,10.90
2023,05,25,03,31,10.90
2023,05,25,03,32,10.90
2023,05,25,03,33,10.90
2023,05,25,03,34,10.90
2023,05,25,03,35,10.90
2023,05,25,03,36,10.90
2023,05,25,03,37,10.90
2023,05,25,03,38,10.90
2023,05,25,03,39,10.90
2023,05,25,03,40,10.80
2023,05,25,03,41,10.80
2023,05,25,03,42,10.80
2023,05,25,03,43,10.80
2023,05,25,03,44,10.80
2023,05,25,03,45,10.80
2023,05,25,03,46,10.70
2023,05,25,03,47,10.70
2023,05,25,03,48,10.70
2023,05,25,03,49,10.70
2023,05,25,03,50,10.70
2023,05,25,03,51,10.70
2023,05,25,03,52,10.60
2023,05,25,03,53,10.60
2023,05,25,03,54,10.60
2023,05,25,03,55,10.60
2023,05,25,03,56,10.60
2023,05,25,03,57,10.60
2023,05,25,03,58,10.60
2023,05,25,03,59,10.60
2023,05,25,04,00,10.60
2023,05,25,04,01,10.60
2023,05,25,04,02,10.60
2023,05,25,04,03,10.70
2023,05,25,04,04,10.60
2023,05,25,04,05,10.60
2023,05,25,04,06,10.60
2023,05,25,04,07,10.60
2023,05,25,04,08,10.60
2023,05,25,04,09,10.60
2023,05,25,04,10,10.60
2023,05,25,04,11,10.60
2023,05,25,04,12,10.60
2023,05,25,04,13,10.60
2023,05,25,04,14,10.60
2023,05,25,04,15,10.60
2023,05,25,04,16,10.60
2023,05,25,04,17,10.50
2023,05,25,04,18,10.40
2023,05,25,04,19,10.40
2023,05,25,04,20,10.40
2023,05,25,04,21,10.50
2023,05,25,04,22,10.60
2023,05,25,04,23,10.60
2023,05,25,04,24,10.60
2023,05,25,04,25,10.60
2023,05,25,04,26,10.60
2023,05,25,04,27,10.60
2023,05,25,04,28,10.60
2023,05,25,04,29,10.60
2023,05,25,04,30,10.60
2023,05,25,04,31,10.60
2023,05,25,04,32,10.60
2023,05,25,04,33,10.60
2023,05,25,04,34,10.60
2023,05,25,04,35,10.50
2023,05,25,04,36,10.50
2023,05,25,04,37,10.60
2023,05,25,04,38,10.60
2023,05,25,04,39,10.60
2023,05,25,04,40,10.60
2023,05,25,04,41,10.60
2023,05,25,04,42,10.50
2023,05,25,04,43,10.50
2023,05,25,04,44,10.60
2023,05,25,04,45,10.60
2023,05,25,04,46,10.60
2023,05,25,04,47,10.60
2023,05,25,04,48,10.60
2023,05,25,04,49,10.40
2023,05,25,04,50,10.40
2023,05,25,04,51,10.40
2023,05,25,04,52,10.40
2023,05,25,04,53,10.40
2023,05,25,04,54,10.40
2023,05,25,04,55,10.40
2023,05,25,04,56,10.40
2023,05,25,04,57,10.40
2023,05,25,04,58,10.40
2023,05,25,04,59,10.40
2023,05,25,05,00,10.30
2023,05,25,05,01,10.30
2023,05,25,05,02,10.30
2023,05,25,05,03,10.30
2023,05,25,05,04,10.30
2023,05,25,05,05,10.30
2023,05,25,05,06,10.30
2023,05,25,05,07,10.30
2023,05,25,05,08,10.30
2023,05,25,05,09,10.30
2023,05,25,05,10,10.20
2023,05,25,05,11,10.20
2023,05,25,05,12,10.20
2023,05,25,05,13,10.20
2023,05,25,05,14,10.20
2023,05,25,05,15,10.20
2023,05,25,05,16,10.20
2023,05,25,05,17,10.20
2023,05,25,05,18,10.20
2023,05,25,05,19,10.20
2023,05,25,05,20,10.10
2023,05,25,05,21,10.10
2023,05,25,05,22,10.10
2023,05,25,05,23,10.10
2023,05,25,05,24,10.10
2023,05,25,05,25,10.10
2023,05,25,05,26,10.10
2023,05,25,05,27,10.10
2023,05,25,05,28,10.10
2023,05,25,05,29,10.10
2023,05,25,05,30,10.10
2023,05,25,05,31,10.10
2023,05,25,05,32,10.10
2023,05,25,05,33,10.10
2023,05,25,05,34,10.10
2023,05,25,05,35,10.10
2023,05,25,05,36,10.00
2023,05,25,05,37,9.90
2023,05,25,05,38,9.90
2023,05,25,05,39,9.90
2023,05,25,05,40,9.90
2023,05,25,05,41,9.90
2023,05,25,05,42,9.90
2023,05,25,05,43,9.90
2023,05,25,05,44,9.90
2023,05,25,05,45,9.90
2023,05,25,05,46,9.90
2023,05,25,05,47,9.90
2023,05,25,05,48,9.90
2023,05,25,05,49,9.90
2023,05,25,05,50,9.90
2023,05,25,05,51,9.90
2023,05,25,05,52,9.90
2023,05,25,05,53,9.90
2023,05,25,05,54,9.90
2023,05,25,05,55,9.90
2023,05,25,05,56,9.90
2023,05,25,05,57,9.90
2023,05,25,05,58,9.90
2023,05,25,05,59,9.90
2023,05,25,06,00,9.90
2023,05,25,06,01,9.90
2023,05,25,06,02,10.00
2023,05,25,06,03,10.10
2023,05,25,06,04,10.10
2023,05,25,06,05,10.10
2023,05,25,06,06,10.10
2023,05,25,06,07,10.10
2023,05,25,06,08,10.10
2023,05,25,06,09,10.10
2023,05,25,06,10,10.10
2023,05,25,06,11,10.20
2023,05,25,06,12,10.20
2023,05,25,06,13,10.20
2023,05,25,06,14,10.20
2023,05,25,06,15,10.30
2023,05,25,06,16,10.30
2023,05,25,06,17,10.30
2023,05,25,06,18,10.30
2023,05,25,06,19,10.30
2023,05,25,06,20,10.40
2023,05,25,06,21,10.40
2023,05,25,06,22,10.40
2023,05,25,06,23,10.40
2023,05,25,06,24,10.50
2023,05,25,06,25,10.60
2023,05,25,06,26,10.60
2023,05,25,06,27,10.70
2023,05,25,06,28,10.70
2023,05,25,06,29,10.80
2023,05,25,06,30,10.80
2023,05,25,06,31,10.90
2023,05,25,06,32,10.90
2023,05,25,06,33,10.90
2023,05,25,06,34,11.10
2023,05,25,06,35,11.10
2023,05,25,06,36,11.10
2023,05,25,06,37,11.20
2023,05,25,06,38,11.20
2023,05,25,06,39,11.30
2023,05,25,06,40,11.30
2023,05,25,06,41,11.40
2023,05,25,06,42,11.40
2023,05,25,06,43,11.40
2023,05,25,06,44,11.40
2023,05,25,06,45,11.50
2023,05,25,06,46,11.60
2023,05,25,06,47,11.60
2023,05,25,06,48,11.70
2023,05,25,06,49,11.80
2023,05,25,06,50,11.80
2023,05,25,06,51,11.80
2023,05,25,06,52,11.90
2023,05,25,06,53,12.00
2023,05,25,06,54,12.10
2023,05,25,06,55,12.20
2023,05,25,06,56,12.30
2023,05,25,06,57,12.30
2023,05,25,06,58,12.40
2023,05,25,06,59,12.50
2023,05,25,07,00,12.60
2023,05,25,07,01,12.70
2023,05,25,07,02,12.70
2023,05,25,07,03,12.80
2023,05,25,07,04,12.80
2023,05,25,07,05,12.80
2023,05,25,07,06,12.80
2023,05,25,07,07,12.80
2023,05,25,07,08,12.80
2023,05,25,07,09,12.80
2023,05,25,07,10,12.80
2023,05,25,07,11,12.80
2023,05,25,07,12,12.90
2023,05,25,07,13,12.90
2023,05,25,07,14,13.00
2023,05,25,07,15,13.10
2023,05,25,07,16,13.10
2023,05,25,07,17,13.20
2023,05,25,07,18,13.20
2023,05,25,07,19,13.30
2023,05,25,07,20,13.40
2023,05,25,07,21,13.50
2023,05,25,07,22,13.60
2023,05,25,07,23,13.60
2023,05,25,07,24,13.70
2023,05,25,07,25,13.80
2023,05,25,07,26,13.90
2023,05,25,07,27,13.90
2023,05,25,07,28,14.00
2023,05,25,07,29,14.10
2023,05,25,07,30,14.20
2023,05,25,07,31,14.20
2023,05,25,07,32,14.30
2023,05,25,07,33,14.30
2023,05,25,07,34,14.30
2023,05,25,07,35,14.30
2023,05,25,07,36,14.30
2023,05,25,07,37,14.30
2023,05,25,07,38,14.30
2023,05,25,07,39,14.30
2023,05,25,07,40,14.30
2023,05,25,07,41,14.40
2023,05,25,07,42,14.40
2023,05,25,07,43,14.50
2023,05,25,07,44,14.50
2023,05,25,07,45,14.60
2023,05,25,07,46,14.80
2023,05,25,07,47,14.90
2023,05,25,07,48,15.00
2023,05,25,07,49,15.00
2023,05,25,07,50,15.10
2023,05,25,07,51,15.10
2023,05,25,07,52,15.20
2023,05,25,07,53,15.20
2023,05,25,07,54,15.30
2023,05,25,07,55,15.40
2023,05,25,07,56,15.40
2023,05,25,07,57,15.50
2023,05,25,07,58,15.60
2023,05,25,07,59,15.70
2023,05,25,08,00,15.80
2023,05,25,08,01,15.80
2023,05,25,08,02,15.90
2023,05,25,08,03,16.00
2023,05,25,08,04,16.10
2023,05,25,08,05,16.10
2023,05,25,08,06,16.20
2023,05,25,08,07,16.20
2023,05,25,08,08,16.30
2023,05,25,08,09,16.30
2023,05,25,08,10,16.30
2023,05,25,08,11,16.30
2023,05,25,08,12,16.30
2023,05,25,08,13,16.20
2023,05,25,08,14,16.20
2023,05,25,08,15,16.10
2023,05,25,08,16,16.10
2023,05,25,08,17,16.00
2023,05,25,08,18,15.90
2023,05,25,08,19,15.80
2023,05,25,08,20,15.80
2023,05,25,08,21,15.80
2023,05,25,08,22,15.80
2023,05,25,08,23,15.80
2023,05,25,08,24,15.90
2023,05,25,08,25,16.00
2023,05,25,08,26,16.10
2023,05,25,08,27,16.10
2023,05,25,08,28,16.20
2023,05,25,08,29,16.30
2023,05,25,08,30,16.40
2023,05,25,08,31,16.40
2023,05,25,08,32,16.40
2023,05,25,08,33,16.50
2023,05,25,08,34,16.60
2023,05,25,08,35,16.60
2023,05,25,08,36,16.70
2023,05,25,08,37,16.70
2023,05,25,08,38,16.70
2023,05,25,08,39,16.80
2023,05,25,08,40,16.80
2023,05,25,08,41,16.70
2023,05,25,08,42,16.70
2023,05,25,08,43,16.70
2023,05,25,08,44,16.70
2023,05,25,08,45,16.80
2023,05,25,08,46,16.80
2023,05,25,08,47,16.90
2023,05,25,08,48,16.90
2023,05,25,08,49,16.90
2023,05,25,08,50,16.90
2023,05,25,08,51,16.90
2023,05,25,08,52,17.00
2023,05,25,08,53,16.90
2023,05,25,08,54,16.80
2023,05,25,08,55,16.70
2023,05,25,08,56,16.70
2023,05,25,08,57,16.60
2023,05,25,08,58,16.60
2023,05,25,08,59,16.40
2023,05,25,09,00,16.50
2023,05,25,09,01,16.60
2023,05,25,09,02,16.70
2023,05,25,09,03,16.80
2023,05,25,09,04,16.90
2023,05,25,09,05,17.00
2023,05,25,09,06,17.00
2023,05,25,09,07,17.20
2023,05,25,09,08,17.30
2023,05,25,09,09,17.40
2023,05,25,09,10,17.50
2023,05,25,09,11,17.70
2023,05,25,09,12,17.70
2023,05,25,09,13,17.70
2023,05,25,09,14,17.70
2023,05,25,09,15,17.70
2023,05,25,09,16,17.60
2023,05,25,09,17,17.60
2023,05,25,09,18,17.60
2023,05,25,09,19,17.60
2023,05,25,09,20,17.70
2023,05,25,09,21,17.80
2023,05,25,09,22,17.90
2023,05,25,09,23,17.90
2023,05,25,09,24,17.90
2023,05,25,09,25,17.90
2023,05,25,09,26,17.90
2023,05,25,09,27,18.00
2023,05,25,09,28,18.10
2023,05,25,09,29,18.10
2023,05,25,09,30,18.10
2023,05,25,09,31,18.10
2023,05,25,09,32,18.10
2023,05,25,09,33,18.10
2023,05,25,09,34,18.10
2023,05,25,09,35,18.10
2023,05,25,09,36,18.20
2023,05,25,09,37,18.20
2023,05,25,09,38,18.30
2023,05,25,09,39,18.30
2023,05,25,09,40,18.30
2023,05,25,09,41,18.40
2023,05,25,09,42,18.50
2023,05,25,09,43,18.50
2023,05,25,09,44,18.60
2023,05,25,09,45,18.70
2023,05,25,09,46,18.80
2023,05,25,09,47,18.90
2023,05,25,09,48,18.90
2023,05,25,09,49,18.90
2023,05,25,09,50,18.90
2023,05,25,09,51,18.90
2023,05,25,09,52,18.90
2023,05,25,09,53,18.90
2023,05,25,09,54,18.90
2023,05,25,09,55,18.90
2023,05,25,09,56,18.90
2023,05,25,09,57,18.90
2023,05,25,09,58,18.90
2023,05,25,09,59,19.00
2023,05,25,10,00,19.10
2023,05,25,10,01,19.10
2023,05,25,10,02,19.10
2023,05,25,10,03,19.20
2023,05,25,10,04,19.20
2023,05,25,10,05,19.30
2023,05,25,10,06,19.30
2023,05,25,10,07,19.30
2023,05,25,10,08,19.40
2023,05,25,10,09,19.50
2023,05,25,10,10,19.40
2023,05,25,10,11,19.40
2023,05,25,10,12,19.40
2023,05,25,10,13,19.30
2023,05,25,10,14,19.30
2023,05,25,10,15,19.30
2023,05,25,10,16,19.20
2023,05,25,10,17,19.10
2023,05,25,10,18,19.00
2023,05,25,10,19,18.90
2023,05,25,10,20,18.90
2023,05,25,10,21,18.90
2023,05,25,10,22,18.80
2023,05,25,10,23,18.60
2023,05,25,10,24,18.50
2023,05,25,10,25,18.40
2023,05,25,10,26,18.40
2023,05,25,10,27,18.40
2023,05,25,10,28,18.50
2023,05,25,10,29,18.40
2023,05,25,10,30,18.40
2023,05,25,10,31,18.30
2023,05,25,10,32,18.40
2023,05,25,10,33,18.50
2023,05,25,10,34,18.50
2023,05,25,10,35,18.40
2023,05,25,10,36,18.20
2023,05,25,10,37,18.10
2023,05,25,10,38,18.10
2023,05,25,10,39,18.20
2023,05,25,10,40,18.20
2023,05,25,10,41,18.20
2023,05,25,10,42,18.20
2023,05,25,10,43,18.00
2023,05,25,10,44,17.90
2023,05,25,10,45,17.90
2023,05,25,10,46,18.00
2023,05,25,10,47,18.10
2023,05,25,10,48,18.10
2023,05,25,10,49,18.00
2023,05,25,10,50,17.90
2023,05,25,10,51,17.90
2023,05,25,10,52,17.90
2023,05,25,10,53,18.00
2023,05,25,10,54,18.10
2023,05,25,10,55,18.20
2023,05,25,10,56,18.40
2023,05,25,10,57,18.50
2023,05,25,10,58,18.60
2023,05,25,10,59,18.70
2023,05,25,11,00,18.80
2023,05,25,11,01,18.70
2023,05,25,11,02,18.60
2023,05,25,11,03,18.50
2023,05,25,11,04,18.40
2023,05,25,11,05,18.40
2023,05,25,11,06,18.40
2023,05,25,11,07,18.40
2023,05,25,11,08,18.40
2023,05,25,11,09,18.50
2023,05,25,11,10,18.60
2023,05,25,11,11,18.70
2023,05,25,11,12,18.90
2023,05,25,11,13,18.90
2023,05,25,11,14,18.90
2023,05,25,11,15,18.80
2023,05,25,11,16,18.90
2023,05,25,11,17,18.90
2023,05,25,11,18,18.90
2023,05,25,11,19,18.90
2023,05,25,11,20,18.90
2023,05,25,11,21,18.90
2023,05,25,11,22,19.00
2023,05,25,11,23,19.00
2023,05,25,11,24,18.90
2023,05,25,11,25,18.90
2023,05,25,11,26,18.90
2023,05,25,11,27,18.80
2023,05,25,11,28,18.80
2023,05,25,11,29,18.90
2023,05,25,11,30,19.00
2023,05,25,11,31,19.10
2023,05,25,11,32,19.20
2023,05,25,11,33,19.20
2023,05,25,11,34,19.10
2023,05,25,11,35,19.10
2023,05,25,11,36,19.10
2023,05,25,11,37,19.10
2023,05,25,11,38,19.10
2023,05,25,11,39,19.20
2023,05,25,11,40,19.20
2023,05,25,11,41,19.20
2023,05,25,11,42,19.20
2023,05,25,11,43,19.20
2023,05,25,11,44,19.10
2023,05,25,11,45,19.10
2023,05,25,11,46,19.20
2023,05,25,11,47,19.20
2023,05,25,11,48,19.30
2023,05,25,11,49,19.30
2023,05,25,11,50,19.30
2023,05,25,11,51,19.30
2023,05,25,11,52,19.20
2023,05,25,11,53,19.10
2023,05,25,11,54,19.10
2023,05,25,11,55,19.30
2023,05,25,11,56,19.40
2023,05,25,11,57,19.50
2023,05,25,11,58,19.60
2023,05,25,11,59,19.60
2023,05,25,12,00,19.60
2023,05,25,12,01,19.60
2023,05,25,12,02,19.60
2023,05,25,12,03,19.60
2023,05,25,12,04,19.50
2023,05,25,12,05,19.40
2023,05,25,12,06,19.40
2023,05,25,12,07,19.40
2023,05,25,12,08,19.60
2023,05,25,12,09,19.70
2023,05,25,12,10,19.80
2023,05,25,12,11,19.80
2023,05,25,12,12,19.90
2023,05,25,12,13,19.90
2023,05,25,12,14,20.00
2023,05,25,12,15,20.10
2023,05,25,12,16,20.20
2023,05,25,12,17,20.30
2023,05,25,12,18,20.30
2023,05,25,12,19,20.30
2023,05,25,12,20,20.40
2023,05,25,12,21,20.40
2023,05,25,12,22,20.50
2023,05,25,12,23,20.50
2023,05,25,12,24,20.60
2023,05,25,12,25,20.60
2023,05,25,12,26,20.50
2023,05,25,12,27,20.50
2023,05,25,12,28,20.50
2023,05,25,12,29,20.40
2023,05,25,12,30,20.50
2023,05,25,12,31,20.50
2023,05,25,12,32,20.50
2023,05,25,12,33,20.30
2023,05,25,12,34,20.20
2023,05,25,12,35,20.20
2023,05,25,12,36,20.20
2023,05,25,12,37,20.20
2023,05,25,12,38,20.20
2023,05,25,12,39,20.20
2023,05,25,12,40,20.20
2023,05,25,12,41,20.20
2023,05,25,12,42,20.20
2023,05,25,12,43,20.20
2023,05,25,12,44,20.20
2023,05,25,12,45,20.10
2023,05,25,12,46,20.00
2023,05,25,12,47,19.90
2023,05,25,12,48,19.90
2023,05,25,12,49,19.90
2023,05,25,12,50,20.10
2023,05,25,12,51,20.10
2023,05,25,12,52,20.10
2023,05,25,12,53,20.10
2023,05,25,12,54,20.10
2023,05,25,12,55,20.20
2023,05,25,12,56,20.30
2023,05,25,12,57,20.20
2023,05,25,12,58,20.20
2023,05,25,12,59,20.20
2023,05,25,13,00,20.20
2023,05,25,13,01,20.20
2023,05,25,13,02,20.20
2023,05,25,13,03,20.40
2023,05,25,13,04,20.50
2023,05,25,13,05,20.60
2023,05,25,13,06,20.70
2023,05,25,13,07,20.80
2023,05,25,13,08,20.90
2023,05,25,13,09,21.00
2023,05,25,13,10,20.80
2023,05,25,13,11,20.60
2023,05,25,13,12,20.50
2023,05,25,13,13,20.60
2023,05,25,13,14,20.60
2023,05,25,13,15,20.60
2023,05,25,13,16,20.70
2023,05,25,13,17,20.70
2023,05,25,13,18,20.70
2023,05,25,13,19,20.70
2023,05,25,13,20,20.70
2023,05,25,13,21,20.50
2023,05,25,13,22,20.40
2023,05,25,13,23,20.20
2023,05,25,13,24,20.00
2023,05,25,13,25,19.90
2023,05,25,13,26,19.90
2023,05,25,13,27,19.90
2023,05,25,13,28,19.90
2023,05,25,13,29,20.00
2023,05,25,13,30,20.10
2023,05,25,13,31,20.00
2023,05,25,13,32,19.90
2023,05,25,13,33,19.90
2023,05,25,13,34,19.80
2023,05,25,13,35,19.80
2023,05,25,13,36,19.90
2023,05,25,13,37,20.00
2023,05,25,13,38,20.20
2023,05,25,13,39,20.40
2023,05,25,13,40,20.50
2023,05,25,13,41,20.60
2023,05,25,13,42,20.50
2023,05,25,13,43,20.30
2023,05,25,13,44,20.20
2023,05,25,13,45,20.20
2023,05,25,13,46,20.30
2023,05,25,13,47,20.40
2023,05,25,13,48,20.50
2023,05,25,13,49,20.70
2023,05,25,13,50,20.90
2023,05,25,13,51,21.00
2023,05,25,13,52,21.00
2023,05,25,13,53,21.10
2023,05,25,13,54,21.20
2023,05,25,13,55,21.20
2023,05,25,13,56,21.30
2023,05,25,13,57,21.20
2023,05,25,13,58,21.00
2023,05,25,13,59,20.90
2023,05,25,14,00,20.70
2023,05,25,14,01,20.80
2023,05,25,14,02,20.80
2023,05,25,14,03,21.00
2023,05,25,14,04,21.00
2023,05,25,14,05,21.00
2023,05,25,14,06,21.00
2023,05,25,14,07,20.90
2023,05,25,14,08,20.70
2023,05,25,14,09,20.60
2023,05,25,14,10,20.50
2023,05,25,14,11,20.40
2023,05,25,14,12,20.50
2023,05,25,14,13,20.50
2023,05,25,14,14,20.50
2023,05,25,14,15,20.50
2023,05,25,14,16,20.60
2023,05,25,14,17,20.80
2023,05,25,14,18,20.90
2023,05,25,14,19,21.00
2023,05,25,14,20,21.10
2023,05,25,14,21,21.30
2023,05,25,14,22,21.40
2023,05,25,14,23,21.60
2023,05,25,14,24,21.70
2023,05,25,14,25,22.00
2023,05,25,14,26,22.10
2023,05,25,14,27,22.10
2023,05,25,14,28,21.80
2023,05,25,14,29,21.60
2023,05,25,14,30,21.40
2023,05,25,14,31,21.30
2023,05,25,14,32,21.30
2023,05,25,14,33,21.30
2023,05,25,14,34,21.30
2023,05,25,14,35,21.30
2023,05,25,14,36,21.30
2023,05,25,14,37,21.30
2023,05,25,14,38,21.30
2023,05,25,14,39,21.30
2023,05,25,14,40,21.30
2023,05,25,14,41,21.30
2023,05,25,14,42,21.20
2023,05,25,14,43,21.20
2023,05,25,14,44,21.20
2023,05,25,14,45,21.20
2023,05,25,14,46,21.30
2023,05,25,14,47,21.30
2023,05,25,14,48,21.30
2023,05,25,14,49,21.30
2023,05,25,14,50,21.30
2023,05,25,14,51,21.30
2023,05,25,14,52,21.30
2023,05,25,14,53,21.30
2023,05,25,14,54,21.30
2023,05,25,14,55,21.30
2023,05,25,14,56,21.20
2023,05,25,14,57,21.20
2023,05,25,14,58,21.20
2023,05,25,14,59,21.20
2023,05,25,15,00,21.30
2023,05,25,15,01,21.30
2023,05,25,15,02,21.40
2023,05,25,15,03,21.50
2023,05,25,15,04,21.50
2023,05,25,15,05,21.50
2023,05,25,15,06,21.40
2023,05,25,15,07,21.30
2023,05,25,15,08,21.30
2023,05,25,15,09,21.40
2023,05,25,15,10,21.50
2023,05,25,15,11,21.60
2023,05,25,15,12,21.60
2023,05,25,15,13,21.60
2023,05,25,15,14,21.50
2023,05,25,15,15,21.40
2023,05,25,15,16,21.30
2023,05,25,15,17,21.30
2023,05,25,15,18,21.30
2023,05,25,15,19,21.30
2023,05,25,15,20,21.40
2023,05,25,15,21,21.50
2023,05,25,15,22,21.60
2023,05,25,15,23,21.60
2023,05,25,15,24,21.60
2023,05,25,15,25,21.60
2023,05,25,15,26,21.60
2023,05,25,15,27,21.60
2023,05,25,15,28,21.60
2023,05,25,15,29,21.70
2023,05,25,15,30,21.80
2023,05,25,15,31,21.80
2023,05,25,15,32,21.80
2023,05,25,15,33,21.70
2023,05,25,15,34,21.60
2023,05,25,15,35,21.60
2023,05,25,15,36,21.70
2023,05,25,15,37,21.70
2023,05,25,15,38,21.70
2023,05,25,15,39,21.70
2023,05,25,15,40,21.70
2023,05,25,15,41,21.70
2023,05,25,15,42,21.70
2023,05,25,15,43,21.80
2023,05,25,15,44,21.90
2023,05,25,15,45,22.00
2023,05,25,15,46,22.00
2023,05,25,15,47,22.10
2023,05,25,15,48,22.20
2023,05,25,15,49,22.30
2023,05,25,15,50,22.50
2023,05,25,15,51,22.60
2023,05,25,15,52,22.70
2023,05,25,15,53,22.90
2023,05,25,15,54,23.10
2023,05,25,15,55,23.30
2023,05,25,15,56,23.40
2023,05,25,15,57,23.50
2023,05,25,15,58,23.60
2023,05,25,15,59,23.70
2023,05,25,16,00,23.70
2023,05,25,16,01,23.70
2023,05,25,16,02,23.70
2023,05,25,16,03,23.70
2023,05,25,16,04,23.70
2023,05,25,16,05,23.60
2023,05,25,16,06,23.40
2023,05,25,16,07,23.30
2023,05,25,16,08,23.30
2023,05,25,16,09,23.30
2023,05,25,16,10,23.30
2023,05,25,16,11,23.30
2023,05,25,16,12,23.30
2023,05,25,16,13,23.30
2023,05,25,16,14,23.30
2023,05,25,16,15,23.30
2023,05,25,16,16,23.30
2023,05,25,16,17,23.20
2023,05,25,16,18,23.10
2023,05,25,16,19,22.90
2023,05,25,16,20,22.90
2023,05,25,16,21,22.90
2023,05,25,16,22,23.00
2023,05,25,16,23,23.10
2023,05,25,16,24,23.20
2023,05,25,16,25,23.20
2023,05,25,16,26,23.30
2023,05,25,16,27,23.30
2023,05,25,16,28,23.30
2023,05,25,16,29,23.30
2023,05,25,16,30,23.40
2023,05,25,16,31,23.40
2023,05,25,16,32,23.30
2023,05,25,16,33,23.30
2023,05,25,16,34,23.30
2023,05,25,16,35,23.30
2023,05,25,16,36,23.30
2023,05,25,16,37,23.30
2023,05,25,16,38,23.30
2023,05,25,16,39,23.30
2023,05,25,16,40,23.30
2023,05,25,16,41,23.30
2023,05,25,16,42,23.30
2023,05,25,16,43,23.20
2023,05,25,16,44,23.20
2023,05,25,16,45,23.30
2023,05,25,16,46,23.30
2023,05,25,16,47,23.20
2023,05,25,16,48,23.30
2023,05,25,16,49,23.30
2023,05,25,16,50,23.20
2023,05,25,16,51,23.30
2023,05,25,16,52,23.30
2023,05,25,16,53,23.30
2023,05,25,16,54,23.30
2023,05,25,16,55,23.30
2023,05,25,16,56,23.30
2023,05,25,16,57,23.40
2023,05,25,16,58,23.40
2023,05,25,16,59,23.50
2023,05,25,17,00,23.60
2023,05,25,17,01,23.60
2023,05,25,17,02,23.60
2023,05,25,17,03,23.60
2023,05,25,17,04,23.60
2023,05,25,17,05,23.60
2023,05,25,17,06,23.50
2023,05,25,17,07,23.40
2023,05,25,17,08,23.50
2023,05,25,17,09,23.60
2023,05,25,17,10,23.70
2023,05,25,17,11,23.60
2023,05,25,17,12,23.60
2023,05,25,17,13,23.60
2023,05,25,17,14,23.60
2023,05,25,17,15,23.70
2023,05,25,17,16,23.70
2023,05,25,17,17,23.80
2023,05,25,17,18,23.80
2023,05,25,17,19,23.90
2023,05,25,17,20,23.90